Nome, AK

10:59 AM AKDT on October 01, 2016 (GMT -0800)
Golovin

Weather History for PAGL - February, 2013

Change the Weather History Date:

Sunday, February 17, 2013

  Actual Average Record
Temperature  
Mean Temperature -14 °F -  
Max Temperature -11 °F - - ()
Min Temperature -20 °F - - ()
Degree Days  
Heating Degree Days 80    
Moisture  
Dew Point -24 °F    
Average Humidity 63    
Maximum Humidity 100    
Minimum Humidity 44    
Precipitation  
Precipitation 0.00 in - - ()
Sea Level Pressure  
Sea Level Pressure 30.34 in    
Wind  
Wind Speed 7 mph (NNW)    
Max Wind Speed 12 mph    
Max Gust Speed -    
Visibility 10 miles    
Events      
T = Trace of Precipitation, MM = Missing Value Source: NWS Daily Summary

Daily Weather History Graph

Daily Weather History Graph

Search for Another Location

Airport or City:

Trip Planner

Search our weather history database for the weather conditions in past years. The results will help you decide how hot, cold, wet, or windy it might be!

Date:

Astronomy

Feb. 17, 2013 Rise Set
Actual Time 9:40 AM AKST 6:32 PM AKST
Civil Twilight 8:49 AM AKST 7:24 PM AKST
Nautical Twilight 7:53 AM AKST 8:20 PM AKST
Astronomical Twilight 6:57 AM AKST 9:16 PM AKST
Moon 10:40 AM AKST (2/17) 4:37 AM AKST (2/17)
Length of Visible Light 10h 34m
Length of Day
8h 51m
Waxing Crescent, 50% of the Moon is Illuminated
Feb 17
Waxing Crescent
Feb 25
Full
Mar 4
Last Quarter
Mar 11
New
Mar 19
First Quarter

Hourly Weather History & Observations

Time (AKST) Temp. Windchill Dew Point Humidity Pressure Visibility Wind Dir Wind Speed Gust Speed Precip Events Conditions
12:16 AM -18.4 °F -37.9 °F - N/A% 30.22 in 10.0 mi WNW 9.2 mph - N/A   Clear
12:36 AM -18.4 °F -36.6 °F - N/A% 30.23 in 10.0 mi North 8.1 mph - N/A   Clear
12:56 AM -16.6 °F -31.3 °F - N/A% 30.23 in 10.0 mi North 5.8 mph - N/A   Clear
1:16 AM -18.4 °F -28.9 °F - N/A% 30.23 in 10.0 mi NW 3.5 mph - N/A   Clear
1:36 AM -18.4 °F -35.1 °F - N/A% 30.23 in 10.0 mi WNW 6.9 mph - N/A   Clear
1:56 AM -16.6 °F -32.9 °F - N/A% 30.24 in 10.0 mi NW 6.9 mph - N/A   Scattered Clouds
2:16 AM -18.4 °F -33.4 °F - N/A% 30.24 in 10.0 mi NW 5.8 mph - N/A   Partly Cloudy
2:36 AM -18.4 °F -33.4 °F - N/A% 30.24 in 10.0 mi NNW 5.8 mph - N/A   Clear
2:56 AM -18.4 °F -33.4 °F - N/A% 30.24 in 10.0 mi NW 5.8 mph - N/A   Clear
3:16 AM -18.4 °F -28.9 °F -27.4 °F 63% 30.25 in 10.0 mi NNW 3.5 mph - N/A   Clear
3:36 AM -16.6 °F -34.4 °F -25.6 °F 64% 30.24 in 10.0 mi NNW 8.1 mph - N/A   Clear
3:56 AM -18.4 °F -39.1 °F - N/A% 30.24 in 10.0 mi NNW 10.4 mph - N/A   Clear
4:16 AM -16.6 °F -32.9 °F -16.6 °F 100% 30.24 in 10.0 mi NNW 6.9 mph - N/A   Clear
4:36 AM -16.6 °F -34.4 °F - N/A% 30.25 in 10.0 mi NW 8.1 mph - N/A   Clear
4:56 AM -16.6 °F -36.8 °F - N/A% 30.25 in 10.0 mi North 10.4 mph - N/A   Clear
5:16 AM -16.6 °F -34.4 °F - N/A% 30.25 in 10.0 mi NNE 8.1 mph - N/A   Clear
5:36 AM -18.4 °F -33.4 °F - N/A% 30.26 in 10.0 mi NNE 5.8 mph - N/A   Clear
5:56 AM -14.8 °F -32.2 °F - N/A% 30.26 in 10.0 mi North 8.1 mph - N/A   Clear
6:16 AM -16.6 °F -35.7 °F - N/A% 30.26 in 10.0 mi NNW 9.2 mph - N/A   Clear
6:36 AM -16.6 °F -35.7 °F - N/A% 30.27 in 10.0 mi North 9.2 mph - N/A   Clear
6:56 AM -16.6 °F -34.4 °F - N/A% 30.27 in 10.0 mi North 8.1 mph - N/A   Clear
7:16 AM -16.6 °F -35.7 °F - N/A% 30.27 in 10.0 mi NNW 9.2 mph - N/A   Clear
7:36 AM -16.6 °F -31.3 °F - N/A% 30.28 in 10.0 mi NNW 5.8 mph - N/A   Clear
7:56 AM -16.6 °F -31.3 °F - N/A% 30.28 in 10.0 mi North 5.8 mph - N/A   Clear
8:16 AM -16.6 °F -32.9 °F - N/A% 30.29 in 10.0 mi WNW 6.9 mph - N/A   Clear
8:36 AM -16.6 °F -32.9 °F -29.2 °F 53% 30.29 in 10.0 mi WNW 6.9 mph - N/A   Clear
8:56 AM -16.6 °F -35.7 °F -29.2 °F 53% 30.29 in 10.0 mi NNW 9.2 mph - N/A   Clear
9:16 AM -18.4 °F -31.4 °F -25.6 °F 70% 30.30 in 10.0 mi NNW 4.6 mph - N/A   Clear
9:36 AM -16.6 °F -32.9 °F -25.6 °F 64% 30.30 in 10.0 mi North 6.9 mph - N/A   Clear
9:56 AM -16.6 °F -31.3 °F - N/A% 30.31 in 10.0 mi NNW 5.8 mph - N/A   Clear
10:16 AM -16.6 °F -31.3 °F -22.0 °F 76% 30.31 in 10.0 mi North 5.8 mph - N/A   Clear
10:36 AM -16.6 °F -34.4 °F -27.4 °F 58% 30.32 in 10.0 mi North 8.1 mph - N/A   Clear
10:56 AM -16.6 °F -34.4 °F -18.4 °F 92% 30.33 in 10.0 mi NNW 8.1 mph - N/A   Clear
11:16 AM -14.8 °F -30.8 °F - N/A% 30.33 in 10.0 mi NNW 6.9 mph - N/A   Clear
11:36 AM -14.8 °F -33.5 °F -14.8 °F 100% 30.33 in 10.0 mi NW 9.2 mph - N/A   Clear
11:56 AM -16.6 °F -35.7 °F - N/A% 30.33 in 10.0 mi NW 9.2 mph - N/A   Clear
12:16 PM -14.8 °F -35.6 °F - N/A% 30.34 in 10.0 mi NNW 11.5 mph - N/A   Clear
12:36 PM -14.8 °F -32.2 °F - N/A% 30.35 in 10.0 mi NNW 8.1 mph - N/A   Clear
12:56 PM -16.6 °F - - N/A% 30.35 in 10.0 mi Calm Calm - N/A   Clear
1:16 PM -14.8 °F -32.2 °F - N/A% 30.36 in 10.0 mi NNW 8.1 mph - N/A   Clear
1:36 PM -14.8 °F - - N/A% 30.37 in 10.0 mi Calm Calm - N/A   Clear
1:56 PM -14.8 °F -24.8 °F - N/A% 30.37 in 10.0 mi North 3.5 mph - N/A   Clear
2:16 PM -13.0 °F -31.3 °F -29.2 °F 44% 30.37 in 10.0 mi NNE 9.2 mph - N/A   Clear
2:36 PM -11.2 °F -29.0 °F -27.4 °F 45% 30.37 in 10.0 mi North 9.2 mph - N/A   Clear
2:56 PM -11.2 °F -24.8 °F -25.6 °F 49% 30.38 in 10.0 mi NNW 5.8 mph - N/A   Clear
3:16 PM -11.2 °F -24.8 °F -25.6 °F 49% 30.38 in 10.0 mi NNW 5.8 mph - N/A   Clear
3:36 PM -11.2 °F -24.8 °F -25.6 °F 49% 30.39 in 10.0 mi North 5.8 mph - N/A   Clear
3:56 PM -11.2 °F -23.0 °F -18.4 °F 70% 30.39 in 10.0 mi North 4.6 mph - N/A   Clear
4:16 PM -11.2 °F -24.8 °F -25.6 °F 49% 30.39 in 10.0 mi North 5.8 mph - N/A   Clear
4:36 PM -11.2 °F -26.4 °F -22.0 °F 59% 30.40 in 10.0 mi NNE 6.9 mph - N/A   Clear
4:56 PM -11.2 °F -23.0 °F -25.6 °F 49% 30.40 in 10.0 mi NNW 4.6 mph - N/A   Clear
5:16 PM -11.2 °F -23.0 °F -25.6 °F 49% 30.40 in 10.0 mi North 4.6 mph - N/A   Clear
5:36 PM -11.2 °F -26.4 °F -27.4 °F 45% 30.40 in 10.0 mi NNW 6.9 mph - N/A   Clear
5:56 PM -13.0 °F -25.1 °F -27.4 °F 49% 30.40 in 10.0 mi NW 4.6 mph - N/A   Clear
6:16 PM -11.2 °F -24.8 °F -18.4 °F 70% 30.41 in 10.0 mi NW 5.8 mph - N/A   Clear
6:36 PM -13.0 °F -25.1 °F - N/A% 30.42 in 10.0 mi WNW 4.6 mph - N/A   Clear
6:56 PM -13.0 °F -30.0 °F -13.0 °F 100% 30.43 in 10.0 mi NNW 8.1 mph - N/A   Clear
7:16 PM -14.8 °F -24.8 °F - N/A% 30.44 in 10.0 mi NNW 3.5 mph - N/A   Clear
7:36 PM -14.8 °F -32.2 °F - N/A% 30.44 in 10.0 mi North 8.1 mph - N/A   Clear
7:56 PM -18.4 °F -35.1 °F - N/A% 30.45 in 10.0 mi North 6.9 mph - N/A   Clear
8:16 PM -16.6 °F -34.4 °F - N/A% 30.44 in 10.0 mi NNE 8.1 mph - N/A   Clear
8:36 PM -14.8 °F -32.2 °F - N/A% 30.43 in 10.0 mi North 8.1 mph - N/A   Clear
8:56 PM -14.8 °F -30.8 °F - N/A% 30.44 in 10.0 mi WNW 6.9 mph - N/A   Clear
9:16 PM -16.6 °F -34.4 °F - N/A% 30.44 in 10.0 mi WNW 8.1 mph - N/A   Clear
9:36 PM -18.4 °F -37.9 °F - N/A% 30.44 in 10.0 mi NNW 9.2 mph - N/A   Clear
9:56 PM -16.6 °F -29.3 °F - N/A% 30.46 in 10.0 mi NW 4.6 mph - N/A   Clear
10:16 PM -16.6 °F -35.7 °F - N/A% 30.45 in 10.0 mi North 9.2 mph - N/A   Clear
10:36 PM -16.6 °F -34.4 °F - N/A% 30.46 in 10.0 mi North 8.1 mph - N/A   Clear
10:56 PM -18.4 °F -31.4 °F - N/A% 30.46 in 10.0 mi NNW 4.6 mph - N/A   Clear
11:16 PM -16.6 °F -32.9 °F - N/A% 30.46 in 10.0 mi NNW 6.9 mph - N/A   Clear
11:36 PM -18.4 °F -33.4 °F - N/A% 30.46 in 10.0 mi NW 5.8 mph - N/A   Clear
11:56 PM -20.2 °F -38.8 °F - N/A% 30.47 in 10.0 mi NW 8.1 mph - N/A   Clear